Location: Kuffner-Sternwarte
(48.2130°N, 16.2960°E)
Time: 04:49:54
(UTC+02:00)

ACS3 Solar Sail - Pass Details

Date: 21 September 2024
Orbit: 963 x 1036 km, 97.4° (Epoch: 04 October)

Event Time Altitude Azimuth Distance (km) Brightness Sun altitude
Exits shadow 21:27:44 21° 188° (S) 2,138 3.3 -25.1°
Maximum altitude 21:32:05 59° 261° (W) 1,193 2.4 -25.8°
Drops below altitude 10° 21:38:26 10° 341° (NNW) 2,842 4.9 -26.6°
Sets 21:41:00 0° 345° (NNW) 3,792 5.6 -27.0°
